QPF
0.16 0.16 0.14 0.15 0.16 0.18 0.21 0.23 0.20 0.15 0.11 0.07 0.03 0.01 0.01 0.01 0.00 0.00 0.01 0.01 0.03 0.05 0.06 0.05 0.03 0.02 0.02 0.03 0.05 0.04 0.04 0.05 0.06 0.05 0.05 0.03 0.02 0.02 0.01 0.01 0.01 0.01 0.01
0.10 0.15 0.13 0.12 0.14 0.17 0.18 0.22 0.22 0.18 0.13 0.09 0.05 0.02 0.00 0.00 0.00 0.00 0.01 0.01 0.01 0.01 0.03 0.04 0.03 0.03 0.03 0.03 0.05 0.04 0.03 0.04 0.05 0.05 0.04 0.03 0.02 0.01 0.01 0.00 0.01 0.01 0.00
0.05 0.08 0.11 0.13 0.13 0.16 0.17 0.19 0.20 0.18 0.12 0.07 0.05 0.03 0.02 0.01 0.00 0.00 0.00 0.01 0.01 0.00 0.01 0.02 0.03 0.03 0.04 0.05 0.05 0.04 0.03 0.04 0.05 0.05 0.04 0.03 0.01 0.01 0.00 0.00 0.01 0.01 0.01
0.05 0.06 0.08 0.11 0.13 0.14 0.16 0.19 0.21 0.19 0.13 0.08 0.05 0.04 0.03 0.03 0.01 0.00 0.00 0.00 0.00 0.00 0.01 0.01 0.02 0.02 0.04 0.05 0.06 0.05 0.04 0.03 0.04 0.04 0.03 0.02 0.01 0.01 0.01 0.00 0.01 0.01 0.01
0.03 0.04 0.05 0.06 0.09 0.10 0.11 0.13 0.16 0.16 0.14 0.11 0.09 0.06 0.04 0.03 0.02 0.00 0.00 0.00 0.00 0.00 0.01 0.01 0.01 0.01 0.02 0.05 0.07 0.07 0.05 0.03 0.03 0.03 0.02 0.02 0.01 0.01 0.01 0.01 0.01 0.01 0.01
0.01 0.02 0.02 0.04 0.05 0.06 0.08 0.11 0.14 0.15 0.16 0.17 0.15 0.10 0.07 0.05 0.04 0.02 0.01 0.00 0.00 0.00 0.00 0.01 0.01 0.00 0.01 0.02 0.05 0.07 0.05 0.04 0.03 0.02 0.02 0.02 0.01 0.01 0.02 0.01 0.01 0.01 0.01
0.01 0.02 0.02 0.03 0.03 0.04 0.06 0.10 0.15 0.19 0.16 0.15 0.17 0.13 0.09 0.06 0.06 0.03 0.02 0.01 0.01 0.01 0.01 0.01 0.01 0.01 0.01 0.01 0.01 0.03 0.05 0.05 0.04 0.03 0.03 0.03 0.02 0.01 0.01 0.01 0.01 0.01 0.01
0.01 0.01 0.02 0.03 0.03 0.04 0.05 0.06 0.10 0.13 0.17 0.16 0.17 0.17 0.14 0.11 0.07 0.03 0.03 0.02 0.01 0.01 0.01 0.00 0.00 0.01 0.01 0.01 0.01 0.01 0.02 0.04 0.04 0.04 0.04 0.03 0.03 0.01 0.01 0.01 0.01 0.01 0.01
0.01 0.01 0.01 0.02 0.03 0.03 0.04 0.05 0.07 0.11 0.15 0.17 0.18 0.19 0.15 0.11 0.09 0.06 0.03 0.02 0.01 0.01 0.01 0.01 0.00 0.01 0.01 0.01 0.01 0.00 0.00 0.01 0.03 0.04 0.04 0.04 0.03 0.02 0.01 0.01 0.01 0.01 0.01
0.01 0.01 0.02 0.02 0.03 0.03 0.04 0.04 0.05 0.09 0.14 0.17 0.18 0.17 0.17 0.13 0.14 0.10 0.06 0.03 0.02 0.02 0.02 0.01 0.01 0.01 0.00 0.01 0.01 0.01 0.00 0.00 0.01 0.03 0.05 0.06 0.04 0.02 0.02 0.01 0.01 0.01 0.01
0.02 0.01 0.02 0.02 0.03 0.03 0.03 0.04 0.05 0.07 0.11 0.14 0.15 0.16 0.20 0.19 0.16 0.14 0.11 0.07 0.05 0.02 0.02 0.02 0.01 0.01 0.01 0.01 0.01 0.01 0.01 0.00 0.00 0.02 0.04 0.07 0.06 0.04 0.02 0.02 0.01 0.01 0.01
0.02 0.01 0.01 0.02 0.02 0.02 0.03 0.03 0.04 0.05 0.06 0.10 0.13 0.15 0.16 0.17 0.15 0.15 0.13 0.10 0.09 0.06 0.04 0.04 0.03 0.02 0.02 0.01 0.01 0.01 0.01 0.00 0.01 0.01 0.02 0.05 0.05 0.05 0.03 0.02 0.01 0.01 0.01
0.02 0.01 0.01 0.01 0.02 0.02 0.03 0.04 0.04 0.05 0.06 0.08 0.10 0.12 0.14 0.15 0.16 0.17 0.18 0.14 0.12 0.09 0.06 0.04 0.03 0.03 0.03 0.02 0.01 0.02 0.01 0.01 0.01 0.01 0.01 0.02 0.03 0.04 0.04 0.02 0.02 0.03 0.03
0.02 0.01 0.02 0.02 0.02 0.02 0.03 0.04 0.05 0.05 0.07 0.08 0.10 0.12 0.14 0.14 0.16 0.16 0.15 0.16 0.14 0.10 0.06 0.04 0.03 0.02 0.02 0.02 0.04 0.05 0.01 0.02 0.02 0.02 0.02 0.02 0.02 0.02 0.03 0.03 0.02 0.03 0.04
0.02 0.02 0.02 0.01 0.02 0.02 0.03 0.04 0.05 0.05 0.07 0.07 0.08 0.11 0.14 0.16 0.17 0.17 0.16 0.14 0.14 0.14 0.10 0.06 0.04 0.03 0.02 0.03 0.06 0.05 0.03 0.04 0.04 0.05 0.05 0.04 0.03 0.03 0.03 0.02 0.02 0.02 0.03
0.02 0.02 0.02 0.02 0.02 0.02 0.02 0.03 0.04 0.06 0.07 0.06 0.07 0.08 0.10 0.12 0.15 0.18 0.18 0.16 0.14 0.12 0.11 0.09 0.06 0.04 0.05 0.04 0.07 0.05 0.05 0.08 0.07 0.07 0.07 0.06 0.04 0.02 0.02 0.01 0.01 0.01 0.01
0.02 0.02 0.02 0.04 0.03 0.03 0.03 0.03 0.04 0.05 0.06 0.06 0.06 0.07 0.08 0.10 0.12 0.13 0.16 0.17 0.16 0.15 0.12 0.10 0.08 0.07 0.07 0.05 0.05 0.06 0.07 0.08 0.07 0.08 0.06 0.06 0.05 0.04 0.03 0.02 0.02 0.01 0.01
0.03 0.02 0.04 0.03 0.03 0.03 0.02 0.03 0.04 0.04 0.05 0.05 0.06 0.05 0.07 0.09 0.11 0.12 0.13 0.15 0.16 0.16 0.14 0.13 0.11 0.09 0.07 0.06 0.06 0.08 0.09 0.09 0.10 0.12 0.11 0.08 0.07 0.06 0.05 0.03 0.02 0.02 0.01
0.03 0.02 0.03 0.02 0.02 0.02 0.02 0.02 0.04 0.04 0.05 0.05 0.05 0.06 0.07 0.09 0.11 0.11 0.12 0.12 0.15 0.18 0.18 0.15 0.13 0.13 0.12 0.12 0.12 0.13 0.14 0.14 0.14 0.17 0.18 0.15 0.12 0.11 0.08 0.06 0.04 0.03 0.02
0.00 0.01 0.02 0.02 0.02 0.02 0.01 0.02 0.03 0.05 0.06 0.06 0.05 0.06 0.08 0.09 0.09 0.12 0.13 0.13 0.15 0.19 0.23 0.22 0.18 0.18 0.19 0.20 0.20 0.20 0.21 0.20 0.19 0.18 0.19 0.18 0.16 0.13 0.11 0.09 0.07 0.06 0.03
0.00 0.00 0.00 0.00 0.01 0.01 0.02 0.02 0.03 0.03 0.05 0.06 0.05 0.05 0.08 0.10 0.10 0.11 0.13 0.15 0.16 0.19 0.22 0.24 0.23 0.21 0.23 0.23 0.21 0.18 0.20 0.24 0.23 0.20 0.21 0.19 0.14 0.11 0.10 0.10 0.10 0.08 0.06
0.00 0.00 0.00 0.00 0.00 0.01 0.02 0.04 0.04 0.04 0.04 0.05 0.05 0.05 0.06 0.08 0.09 0.11 0.13 0.17 0.20 0.20 0.19 0.20 0.24 0.21 0.20 0.19 0.18 0.19 0.20 0.23 0.28 0.22 0.17 0.21 0.19 0.16 0.13 0.11 0.11 0.10 0.08
0.00 0.00 0.00 0.00 0.01 0.01 0.02 0.03 0.05 0.04 0.05 0.05 0.05 0.05 0.06 0.08 0.10 0.11 0.15 0.18 0.21 0.22 0.23 0.22 0.22 0.21 0.20 0.19 0.21 0.22 0.20 0.19 0.19 0.20 0.17 0.21 0.22 0.21 0.18 0.15 0.13 0.10 0.07
0.00 0.00 0.00 0.00 0.01 0.01 0.01 0.02 0.05 0.05 0.05 0.04 0.04 0.04 0.06 0.07 0.07 0.12 0.14 0.19 0.21 0.21 0.22 0.25 0.26 0.25 0.23 0.23 0.23 0.25 0.22 0.21 0.22 0.22 0.20 0.22 0.22 0.20 0.18 0.15 0.12 0.08 0.05
0.00 0.00 0.00 0.01 0.01 0.02 0.02 0.01 0.03 0.06 0.06 0.04 0.04 0.05 0.07 0.08 0.07 0.12 0.17 0.18 0.19 0.20 0.23 0.25 0.28 0.29 0.27 0.28 0.28 0.25 0.24 0.22 0.22 0.21 0.16 0.14 0.15 0.16 0.15 0.14 0.12 0.09 0.05
0.00 0.00 0.00 0.01 0.01 0.02 0.02 0.02 0.02 0.03 0.06 0.05 0.04 0.04 0.06 0.08 0.09 0.12 0.18 0.18 0.19 0.19 0.20 0.21 0.24 0.26 0.25 0.25 0.28 0.24 0.19 0.17 0.15 0.15 0.13 0.08 0.08 0.08 0.11 0.10 0.07 0.05 0.04
MSLP
1015.32 1015.16 1014.93 1014.65 1014.38 1014.17 1014.05 1014.04 1014.11 1014.24 1014.38 1014.48 1014.51 1014.48 1014.40 1014.31 1014.26 1014.30 1014.46 1014.74 1015.12 1015.55 1015.99 1016.39 1016.71 1016.93 1017.05 1017.08 1017.07 1017.04 1017.03 1017.07 1017.17 1017.34 1017.58 1017.86 1018.18 1018.49 1018.79 1019.04 1019.24 1019.38 1019.47
1015.02 1014.82 1014.56 1014.25 1013.96 1013.74 1013.63 1013.64 1013.76 1013.94 1014.15 1014.31 1014.40 1014.41 1014.34 1014.24 1014.15 1014.12 1014.20 1014.40 1014.72 1015.13 1015.58 1016.02 1016.41 1016.71 1016.93 1017.05 1017.11 1017.14 1017.16 1017.21 1017.32 1017.49 1017.72 1018.01 1018.33 1018.66 1018.97 1019.24 1019.45 1019.60 1019.68
1014.76 1014.54 1014.26 1013.94 1013.65 1013.44 1013.34 1013.37 1013.52 1013.75 1014.01 1014.23 1014.38 1014.42 1014.37 1014.25 1014.11 1014.00 1013.98 1014.08 1014.31 1014.65 1015.06 1015.51 1015.94 1016.33 1016.63 1016.86 1017.02 1017.12 1017.21 1017.30 1017.43 1017.61 1017.85 1018.13 1018.44 1018.76 1019.06 1019.33 1019.55 1019.70 1019.80
1014.59 1014.37 1014.08 1013.76 1013.48 1013.26 1013.17 1013.21 1013.37 1013.62 1013.91 1014.18 1014.37 1014.45 1014.41 1014.29 1014.11 1013.93 1013.81 1013.80 1013.91 1014.15 1014.50 1014.91 1015.36 1015.79 1016.18 1016.51 1016.78 1016.99 1017.17 1017.33 1017.50 1017.70 1017.94 1018.20 1018.48 1018.78 1019.06 1019.31 1019.52 1019.69 1019.80
1014.51 1014.29 1014.01 1013.70 1013.42 1013.21 1013.10 1013.12 1013.27 1013.51 1013.80 1014.09 1014.30 1014.42 1014.41 1014.30 1014.10 1013.88 1013.68 1013.57 1013.57 1013.69 1013.94 1014.30 1014.72 1015.18 1015.63 1016.05 1016.42 1016.75 1017.04 1017.29 1017.52 1017.75 1017.98 1018.22 1018.47 1018.72 1018.97 1019.19 1019.40 1019.57 1019.71
1014.50 1014.28 1014.02 1013.72 1013.44 1013.22 1013.08 1013.06 1013.16 1013.36 1013.63 1013.90 1014.13 1014.28 1014.31 1014.23 1014.06 1013.82 1013.59 1013.40 1013.30 1013.31 1013.46 1013.73 1014.10 1014.55 1015.03 1015.52 1015.99 1016.43 1016.82 1017.17 1017.47 1017.74 1017.99 1018.21 1018.42 1018.63 1018.82 1019.02 1019.20 1019.38 1019.55
1014.54 1014.32 1014.06 1013.78 1013.50 1013.25 1013.07 1012.99 1013.02 1013.15 1013.36 1013.60 1013.83 1014.01 1014.09 1014.07 1013.95 1013.75 1013.51 1013.29 1013.12 1013.05 1013.09 1013.27 1013.56 1013.97 1014.45 1014.98 1015.52 1016.05 1016.54 1016.99 1017.37 1017.69 1017.95 1018.17 1018.35 1018.51 1018.66 1018.82 1018.99 1019.17 1019.37
1014.58 1014.36 1014.11 1013.83 1013.54 1013.26 1013.03 1012.88 1012.82 1012.87 1013.00 1013.20 1013.42 1013.61 1013.75 1013.81 1013.77 1013.64 1013.44 1013.23 1013.03 1012.89 1012.85 1012.93 1013.14 1013.48 1013.93 1014.46 1015.04 1015.63 1016.21 1016.73 1017.19 1017.56 1017.86 1018.08 1018.25 1018.38 1018.51 1018.64 1018.80 1018.98 1019.20
1014.59 1014.36 1014.11 1013.83 1013.54 1013.24 1012.97 1012.74 1012.60 1012.54 1012.59 1012.73 1012.92 1013.13 1013.32 1013.45 1013.51 1013.47 1013.36 1013.18 1012.99 1012.82 1012.71 1012.71 1012.83 1013.08 1013.47 1013.97 1014.55 1015.18 1015.81 1016.40 1016.93 1017.36 1017.70 1017.95 1018.13 1018.26 1018.37 1018.49 1018.65 1018.84 1019.08
1014.55 1014.30 1014.06 1013.79 1013.50 1013.19 1012.87 1012.59 1012.36 1012.22 1012.18 1012.24 1012.39 1012.59 1012.82 1013.02 1013.17 1013.24 1013.22 1013.11 1012.96 1012.78 1012.64 1012.56 1012.60 1012.76 1013.08 1013.52 1014.07 1014.70 1015.35 1015.99 1016.57 1017.06 1017.46 1017.75 1017.97 1018.12 1018.25 1018.38 1018.55 1018.76 1019.02
1014.45 1014.19 1013.95 1013.69 1013.41 1013.10 1012.77 1012.44 1012.14 1011.92 1011.79 1011.77 1011.85 1012.03 1012.27 1012.52 1012.75 1012.91 1012.98 1012.96 1012.86 1012.71 1012.56 1012.44 1012.41 1012.50 1012.72 1013.10 1013.60 1014.20 1014.85 1015.51 1016.13 1016.68 1017.13 1017.49 1017.75 1017.96 1018.12 1018.29 1018.48 1018.71 1018.99
1014.31 1014.04 1013.81 1013.57 1013.30 1013.00 1012.66 1012.30 1011.95 1011.65 1011.43 1011.32 1011.33 1011.46 1011.68 1011.95 1012.22 1012.46 1012.62 1012.68 1012.66 1012.56 1012.42 1012.30 1012.22 1012.25 1012.41 1012.71 1013.15 1013.70 1014.33 1014.99 1015.64 1016.23 1016.74 1017.16 1017.49 1017.75 1017.98 1018.19 1018.42 1018.68 1018.98
1014.15 1013.88 1013.65 1013.43 1013.18 1012.89 1012.55 1012.17 1011.77 1011.40 1011.09 1010.89 1010.82 1010.87 1011.04 1011.29 1011.58 1011.87 1012.10 1012.25 1012.31 1012.28 1012.20 1012.09 1012.02 1012.02 1012.12 1012.37 1012.74 1013.24 1013.84 1014.48 1015.13 1015.75 1016.30 1016.78 1017.18 1017.51 1017.80 1018.07 1018.34 1018.64 1018.95
1013.99 1013.72 1013.50 1013.29 1013.05 1012.77 1012.43 1012.02 1011.59 1011.15 1010.76 1010.46 1010.29 1010.25 1010.35 1010.56 1010.85 1011.16 1011.44 1011.67 1011.82 1011.88 1011.87 1011.83 1011.78 1011.79 1011.88 1012.08 1012.42 1012.87 1013.42 1014.03 1014.67 1015.30 1015.88 1016.40 1016.85 1017.24 1017.59 1017.92 1018.23 1018.56 1018.90
1013.86 1013.59 1013.37 1013.16 1012.93 1012.64 1012.29 1011.86 1011.38 1010.88 1010.41 1010.02 1009.75 1009.62 1009.64 1009.79 1010.04 1010.36 1010.68 1010.98 1011.21 1011.37 1011.46 1011.50 1011.52 1011.56 1011.67 1011.86 1012.17 1012.58 1013.10 1013.68 1014.30 1014.92 1015.51 1016.06 1016.54 1016.98 1017.37 1017.74 1018.09 1018.45 1018.80
1013.76 1013.50 1013.26 1013.04 1012.80 1012.49 1012.12 1011.66 1011.14 1010.59 1010.05 1009.58 1009.22 1009.00 1008.93 1009.02 1009.23 1009.53 1009.88 1010.22 1010.54 1010.79 1010.98 1011.12 1011.22 1011.33 1011.48 1011.70 1012.00 1012.39 1012.88 1013.43 1014.02 1014.63 1015.22 1015.77 1016.28 1016.74 1017.16 1017.56 1017.93 1018.30 1018.67
1013.72 1013.44 1013.19 1012.94 1012.67 1012.34 1011.93 1011.44 1010.88 1010.29 1009.70 1009.17 1008.74 1008.44 1008.30 1008.31 1008.48 1008.75 1009.10 1009.47 1009.84 1010.17 1010.45 1010.68 1010.88 1011.07 1011.27 1011.53 1011.85 1012.25 1012.72 1013.25 1013.83 1014.42 1015.00 1015.55 1016.07 1016.54 1016.98 1017.38 1017.78 1018.16 1018.53
1013.70 1013.42 1013.14 1012.86 1012.54 1012.17 1011.73 1011.22 1010.64 1010.02 1009.40 1008.83 1008.35 1008.00 1007.80 1007.75 1007.86 1008.09 1008.41 1008.79 1009.18 1009.55 1009.89 1010.19 1010.46 1010.72 1010.99 1011.29 1011.65 1012.07 1012.55 1013.09 1013.66 1014.25 1014.83 1015.38 1015.90 1016.38 1016.83 1017.24 1017.64 1018.03 1018.42
1013.71 1013.40 1013.09 1012.77 1012.42 1012.01 1011.55 1011.02 1010.43 1009.81 1009.19 1008.61 1008.11 1007.73 1007.48 1007.38 1007.42 1007.60 1007.87 1008.20 1008.57 1008.94 1009.29 1009.63 1009.94 1010.25 1010.57 1010.93 1011.33 1011.79 1012.30 1012.86 1013.46 1014.06 1014.66 1015.23 1015.76 1016.26 1016.72 1017.15 1017.56 1017.96 1018.35
1013.69 1013.37 1013.03 1012.67 1012.29 1011.86 1011.38 1010.85 1010.28 1009.68 1009.09 1008.53 1008.03 1007.63 1007.36 1007.21 1007.19 1007.28 1007.48 1007.74 1008.03 1008.35 1008.67 1008.99 1009.31 1009.64 1009.99 1010.39 1010.84 1011.34 1011.91 1012.52 1013.16 1013.81 1014.44 1015.05 1015.62 1016.15 1016.64 1017.10 1017.53 1017.94 1018.36
1013.63 1013.29 1012.92 1012.54 1012.14 1011.70 1011.23 1010.73 1010.19 1009.64 1009.09 1008.56 1008.10 1007.70 1007.41 1007.21 1007.12 1007.13 1007.22 1007.38 1007.58 1007.80 1008.04 1008.30 1008.58 1008.90 1009.26 1009.69 1010.18 1010.74 1011.36 1012.04 1012.75 1013.46 1014.17 1014.85 1015.48 1016.06 1016.60 1017.09 1017.56 1018.00 1018.44
1013.50 1013.13 1012.76 1012.37 1011.96 1011.54 1011.10 1010.63 1010.14 1009.65 1009.16 1008.69 1008.26 1007.88 1007.57 1007.34 1007.18 1007.10 1007.08 1007.12 1007.19 1007.30 1007.43 1007.61 1007.83 1008.11 1008.46 1008.89 1009.41 1010.02 1010.71 1011.47 1012.26 1013.06 1013.85 1014.60 1015.31 1015.97 1016.57 1017.12 1017.63 1018.12 1018.59
1013.27 1012.90 1012.53 1012.14 1011.75 1011.36 1010.95 1010.54 1010.11 1009.68 1009.25 1008.83 1008.44 1008.09 1007.78 1007.51 1007.30 1007.14 1007.02 1006.93 1006.88 1006.87 1006.90 1006.98 1007.12 1007.35 1007.68 1008.12 1008.66 1009.32 1010.06 1010.89 1011.75 1012.64 1013.52 1014.36 1015.15 1015.88 1016.55 1017.17 1017.74 1018.27 1018.77
1012.97 1012.61 1012.24 1011.88 1011.52 1011.16 1010.80 1010.43 1010.06 1009.69 1009.31 1008.95 1008.59 1008.26 1007.95 1007.67 1007.42 1007.19 1006.99 1006.82 1006.67 1006.56 1006.50 1006.50 1006.58 1006.77 1007.07 1007.50 1008.06 1008.74 1009.53 1010.40 1011.33 1012.28 1013.23 1014.14 1015.00 1015.80 1016.54 1017.21 1017.83 1018.40 1018.94
1012.60 1012.27 1011.94 1011.61 1011.29 1010.97 1010.64 1010.32 1009.99 1009.66 1009.32 1008.99 1008.66 1008.35 1008.04 1007.76 1007.48 1007.22 1006.98 1006.76 1006.56 1006.40 1006.28 1006.24 1006.29 1006.45 1006.73 1007.16 1007.72 1008.41 1009.22 1010.12 1011.07 1012.06 1013.03 1013.98 1014.88 1015.73 1016.50 1017.22 1017.87 1018.48 1019.03
1012.21 1011.92 1011.64 1011.36 1011.08 1010.80 1010.51 1010.22 1009.91 1009.60 1009.28 1008.96 1008.65 1008.34 1008.05 1007.77 1007.50 1007.24 1007.00 1006.77 1006.56 1006.40 1006.28 1006.23 1006.28 1006.44 1006.73 1007.15 1007.71 1008.39 1009.19 1010.07 1011.02 1011.99 1012.95 1013.90 1014.80 1015.64 1016.43 1017.15 1017.82 1018.44 1019.00
Thickness
5734 5737 5739 5741 5743 5745 5747 5748 5750 5752 5754 5756 5758 5760 5761 5760 5761 5761 5759 5755 5753 5753 5754 5754 5754 5754 5754 5755 5755 5756 5755 5755 5755 5755 5754 5753 5753 5752 5751 5751 5750 5750 5749
5728 5731 5734 5736 5739 5741 5743 5745 5747 5749 5750 5752 5754 5756 5758 5760 5760 5761 5759 5757 5754 5754 5754 5754 5754 5754 5754 5754 5755 5755 5755 5754 5754 5753 5753 5752 5751 5751 5750 5749 5749 5748 5747
5721 5725 5729 5732 5734 5736 5739 5741 5744 5745 5747 5749 5750 5753 5755 5757 5759 5761 5761 5759 5758 5755 5754 5754 5754 5754 5754 5754 5754 5754 5754 5754 5753 5752 5751 5750 5750 5749 5749 5748 5747 5746 5745
5714 5718 5722 5726 5728 5731 5734 5737 5739 5740 5742 5744 5747 5749 5753 5754 5756 5759 5760 5760 5760 5760 5756 5755 5754 5754 5754 5754 5754 5754 5753 5753 5752 5751 5750 5750 5749 5748 5747 5746 5745 5745 5744
5707 5711 5715 5719 5721 5724 5728 5732 5734 5735 5736 5738 5741 5744 5747 5751 5754 5757 5759 5761 5761 5760 5760 5755 5754 5754 5753 5753 5753 5753 5753 5752 5751 5750 5749 5749 5747 5746 5745 5745 5744 5743 5742
5698 5703 5707 5712 5715 5718 5721 5724 5728 5730 5732 5733 5735 5739 5741 5745 5748 5752 5757 5760 5761 5761 5761 5759 5756 5754 5753 5752 5752 5752 5752 5751 5751 5750 5749 5748 5747 5745 5744 5743 5742 5741 5740
5689 5694 5699 5704 5707 5711 5714 5718 5721 5724 5726 5728 5726 5728 5733 5739 5743 5747 5751 5755 5758 5760 5759 5759 5758 5758 5755 5752 5751 5751 5751 5751 5750 5749 5748 5747 5745 5744 5743 5741 5740 5739 5738
5682 5687 5691 5695 5699 5702 5706 5711 5714 5716 5719 5722 5721 5719 5720 5726 5734 5742 5745 5748 5753 5756 5757 5759 5759 5757 5757 5756 5753 5751 5750 5749 5749 5748 5747 5745 5744 5743 5741 5740 5739 5737 5736
5675 5678 5683 5687 5691 5696 5700 5704 5707 5710 5712 5716 5719 5717 5717 5719 5725 5733 5740 5744 5748 5752 5754 5756 5758 5758 5757 5756 5754 5750 5749 5748 5747 5746 5745 5744 5742 5741 5739 5738 5737 5735 5734
5669 5672 5676 5680 5684 5689 5693 5698 5702 5705 5707 5709 5713 5717 5720 5722 5718 5721 5729 5737 5742 5746 5750 5753 5754 5756 5756 5755 5753 5751 5748 5746 5745 5744 5743 5742 5741 5739 5738 5736 5734 5732 5731
5664 5666 5669 5673 5677 5682 5687 5691 5696 5699 5702 5705 5708 5710 5712 5714 5718 5716 5717 5724 5731 5739 5744 5748 5750 5751 5752 5752 5750 5748 5746 5744 5743 5742 5741 5740 5739 5737 5735 5733 5731 5729 5728
5659 5661 5663 5667 5671 5676 5680 5684 5688 5693 5696 5699 5703 5705 5707 5709 5711 5713 5714 5717 5721 5730 5736 5741 5744 5747 5747 5748 5747 5746 5743 5741 5740 5739 5738 5737 5736 5734 5732 5730 5728 5726 5724
5652 5655 5658 5662 5665 5669 5673 5678 5682 5686 5690 5693 5697 5700 5704 5707 5711 5711 5710 5711 5714 5720 5727 5732 5737 5741 5741 5742 5743 5741 5739 5738 5737 5736 5735 5734 5733 5731 5729 5727 5725 5723 5721
5647 5650 5653 5656 5660 5663 5667 5671 5675 5680 5684 5687 5691 5695 5698 5703 5705 5707 5708 5707 5706 5710 5715 5723 5730 5734 5737 5738 5740 5737 5736 5735 5734 5733 5732 5730 5729 5727 5725 5724 5721 5719 5717
5645 5646 5649 5652 5655 5657 5660 5664 5668 5673 5677 5680 5684 5688 5692 5696 5700 5703 5704 5706 5703 5702 5707 5716 5721 5727 5730 5732 5733 5732 5735 5732 5731 5729 5728 5727 5725 5723 5721 5719 5717 5715 5712
5642 5643 5645 5648 5650 5652 5654 5657 5661 5665 5670 5674 5678 5681 5685 5689 5693 5696 5698 5701 5703 5703 5703 5711 5715 5719 5723 5726 5726 5728 5730 5729 5727 5725 5724 5722 5720 5718 5716 5714 5712 5710 5707
5641 5641 5642 5644 5645 5647 5649 5651 5654 5658 5662 5666 5671 5675 5678 5682 5685 5689 5692 5695 5697 5699 5699 5704 5708 5712 5714 5718 5720 5721 5723 5723 5722 5721 5719 5717 5715 5713 5711 5709 5706 5704 5702
5639 5639 5639 5640 5640 5641 5643 5645 5646 5650 5654 5658 5663 5667 5671 5675 5678 5681 5684 5688 5692 5694 5695 5696 5699 5702 5706 5711 5713 5714 5716 5717 5718 5716 5714 5712 5710 5708 5706 5703 5701 5698 5695
5638 5638 5637 5636 5636 5636 5637 5638 5641 5644 5647 5650 5654 5659 5664 5667 5670 5674 5677 5681 5685 5689 5691 5692 5694 5697 5700 5703 5704 5705 5708 5710 5710 5709 5707 5705 5704 5702 5699 5697 5694 5691 5689
5638 5636 5634 5633 5632 5631 5631 5633 5635 5637 5641 5644 5648 5652 5656 5660 5664 5667 5670 5674 5678 5681 5684 5687 5689 5691 5693 5695 5696 5697 5698 5700 5701 5702 5700 5698 5696 5694 5692 5690 5687 5685 5682
5637 5635 5632 5630 5628 5627 5626 5625 5627 5631 5635 5638 5642 5645 5649 5652 5656 5660 5664 5668 5671 5675 5677 5681 5683 5684 5686 5688 5690 5692 5692 5692 5691 5693 5692 5691 5689 5687 5685 5682 5680 5678 5675
5636 5633 5630 5628 5625 5623 5619 5618 5619 5625 5629 5632 5635 5639 5643 5647 5650 5653 5657 5661 5665 5670 5673 5675 5678 5679 5683 5685 5686 5687 5686 5685 5682 5684 5685 5682 5681 5679 5678 5675 5673 5671 5668
5636 5632 5629 5626 5624 5621 5616 5615 5616 5620 5625 5628 5630 5633 5637 5642 5644 5649 5653 5657 5661 5665 5668 5673 5674 5677 5679 5682 5682 5681 5682 5682 5680 5679 5677 5673 5672 5671 5669 5667 5665 5662 5660
5637 5632 5629 5626 5622 5619 5614 5612 5612 5618 5621 5624 5626 5628 5631 5636 5639 5642 5647 5652 5657 5661 5664 5668 5672 5674 5676 5677 5679 5679 5678 5674 5671 5670 5670 5664 5662 5662 5661 5658 5655 5654 5652
5638 5634 5630 5626 5623 5620 5614 5611 5610 5615 5618 5620 5623 5624 5626 5629 5631 5634 5640 5645 5650 5655 5658 5662 5665 5668 5669 5671 5672 5671 5669 5666 5662 5659 5661 5659 5654 5652 5650 5649 5647 5645 5644
5639 5635 5632 5628 5624 5621 5615 5611 5609 5614 5615 5616 5619 5621 5621 5623 5626 5629 5635 5639 5643 5648 5653 5655 5657 5659 5662 5663 5665 5666 5666 5663 5659 5653 5653 5653 5649 5647 5641 5640 5640 5638 5637